| time (UTC) | temp F | wind direction | speed knots | gust knots | rain 1hr in | rain 24hr in | rain mn in | humidity % | barometer mb |
| 20260507090504 | 34 | 130 | 0.9 | 4.3 | 0.00 | 0.00 | 0.00 | 71 | 1027.8 |
| 20260507090002 | 34 | 125 | 0.9 | 4.3 | 0.00 | 0.01 | 0.00 | 71 | 1027.8 |
| 20260507085502 | 34 | 109 | 0.9 | 2.6 | 0.00 | 0.01 | 0.00 | 70 | 1027.7 |
| 20260507085003 | 34 | 111 | 0.9 | 2.6 | 0.00 | 0.01 | 0.00 | 69 | 1027.6 |
| 20260507084502 | 34 | 132 | 1.7 | 6.1 | 0.00 | 0.01 | 0.00 | 69 | 1027.4 |
| 20260507084002 | 34 | 130 | 1.7 | 10.4 | 0.00 | 0.01 | 0.00 | 68 | 1027.6 |
| 20260507083502 | 34 | 138 | 1.7 | 10.4 | 0.00 | 0.01 | 0.00 | 67 | 1027.4 |
| 20260507083003 | 34 | 124 | 1.7 | 5.2 | 0.00 | 0.01 | 0.00 | 66 | 1027.4 |
| 20260507082502 | 35 | 123 | 2.6 | 3.5 | 0.00 | 0.01 | 0.00 | 65 | 1027.4 |
| 20260507081956 | 35 | 123 | 2.6 | 5.2 | 0.00 | 0.01 | 0.00 | 64 | 1027.4 |
| 20260507081716 | 35 | 101 | 2.6 | 6.1 | 0.00 | 0.01 | 0.00 | 63 | 1027.4 |
| 20260507080944 | 35 | 98 | 1.7 | 6.1 | 0.00 | 0.01 | 0.00 | 63 | 1027.6 |
| 20260507080438 | 36 | 96 | 0.9 | 4.3 | 0.00 | 0.01 | 0.00 | 63 | 1027.4 |
| 20260507075932 | 36 | 134 | 0.9 | 4.3 | 0.00 | 0.01 | 0.00 | 63 | 1027.4 |
| 20260507075426 | 36 | 146 | 0.9 | 4.3 | 0.00 | 0.01 | 0.00 | 61 | 1027.4 |
| 20260507074920 | 36 | 117 | 0.9 | 2.6 | 0.00 | 0.01 | 0.00 | 59 | 1027.4 |
| 20260507074414 | 37 | 96 | 0.9 | 3.5 | 0.00 | 0.01 | 0.00 | 59 | 1027.4 |
| 20260507073908 | 37 | 93 | 1.7 | 7.0 | 0.00 | 0.01 | 0.00 | 59 | 1027.3 |
| 20260507073402 | 37 | 89 | 2.6 | 7.0 | 0.00 | 0.01 | 0.00 | 58 | 1027.3 |
| 20260507073120 | 37 | 119 | 0.9 | 6.1 | 0.00 | 0.01 | 0.00 | 58 | 1027.2 |
| 20260507072350 | 37 | 93 | 1.7 | 5.2 | 0.00 | 0.01 | 0.00 | 56 | 1027.2 |
| 20260507071845 | 37 | 88 | 2.6 | 5.2 | 0.00 | 0.01 | 0.00 | 55 | 1027.1 |
| 20260507071340 | 37 | 82 | 2.6 | 6.1 | 0.00 | 0.01 | 0.00 | 55 | 1027.1 |
| 20260507070833 | 37 | 93 | 2.6 | 6.1 | 0.00 | 0.01 | 0.00 | 55 | 1027.1 |
| 20260507070327 | 37 | 83 | 1.7 | 4.3 | 0.00 | 0.01 | 0.00 | 55 | 1027.1 |
| 20260507065821 | 37 | 81 | 1.7 | 3.5 | 0.00 | 0.01 | 0.00 | 55 | 1027.1 |
| 20260507065315 | 38 | 81 | 1.7 | 3.5 | 0.00 | 0.01 | 0.00 | 55 | 1027.1 |
| 20260507064808 | 38 | 77 | 1.7 | 5.2 | 0.00 | 0.01 | 0.00 | 56 | 1027.1 |
| 20260507064526 | 38 | 69 | 2.6 | 6.1 | 0.00 | 0.01 | 0.00 | 57 | 1026.9 |
| 20260507063757 | 38 | 91 | 4.3 | 7.0 | 0.00 | 0.01 | 0.00 | 57 | 1026.9 |
| 20260507063251 | 38 | 88 | 4.3 | 7.0 | 0.00 | 0.01 | 0.00 | 56 | 1026.8 |
| 20260507062746 | 38 | 93 | 4.3 | 7.0 | 0.00 | 0.01 | 0.00 | 56 | 1026.8 |
| 20260507062239 | 38 | 96 | 5.2 | 7.0 | 0.00 | 0.01 | 0.00 | 56 | 1026.7 |
| 20260507061733 | 38 | 95 | 5.2 | 7.0 | 0.00 | 0.01 | 0.00 | 57 | 1026.7 |
| 20260507061227 | 38 | 96 | 4.3 | 7.0 | 0.00 | 0.01 | 0.00 | 58 | 1026.8 |
| 20260507060722 | 38 | 94 | 4.3 | 7.0 | 0.00 | 0.01 | 0.00 | 59 | 1026.7 |
| 20260507060216 | 38 | 110 | 5.2 | 7.0 | 0.00 | 0.01 | 0.00 | 59 | 1026.7 |
| 20260507055714 | 38 | 90 | 4.3 | 7.0 | 0.00 | 0.01 | 0.01 | 60 | 1026.7 |
| 20260507055435 | 39 | 107 | 5.2 | 7.8 | 0.00 | 0.01 | 0.01 | 60 | 1026.5 |
| 20260507054715 | 39 | 103 | 4.3 | 7.8 | 0.00 | 0.01 | 0.01 | 60 | 1026.5 |
| 20260507054215 | 39 | 112 | 4.3 | 7.8 | 0.00 | 0.01 | 0.01 | 59 | 1026.4 |
| 20260507053939 | 39 | 117 | 5.2 | 7.8 | 0.00 | 0.01 | 0.01 | 59 | 1026.3 |
| 20260507053214 | 40 | 107 | 4.3 | 8.7 | 0.00 | 0.01 | 0.01 | 58 | 1026.3 |
| 20260507052715 | 40 | 98 | 4.3 | 8.7 | 0.00 | 0.01 | 0.01 | 58 | 1026.3 |
| 20260507052212 | 40 | 84 | 4.3 | 7.0 | 0.00 | 0.01 | 0.01 | 56 | 1026.3 |
| 20260507051711 | 40 | 92 | 3.5 | 7.0 | 0.00 | 0.01 | 0.01 | 56 | 1026.3 |
| 20260507051211 | 40 | 89 | 3.5 | 5.2 | 0.00 | 0.01 | 0.01 | 57 | 1026.3 |
| 20260507050712 | 40 | 81 | 3.5 | 5.2 | 0.00 | 0.01 | 0.01 | 56 | 1026.3 |
| 20260507050206 | 41 | 61 | 3.5 | 6.1 | 0.00 | 0.01 | 0.01 | 55 | 1026.3 |
| 20260507045929 | 41 | 55 | 3.5 | 6.1 | 0.00 | 0.01 | 0.01 | 56 | 1026.3 |
| 20260507045427 | 41 | 63 | 3.5 | 6.1 | 0.00 | 0.02 | 0.01 | 57 | 1026.2 |
| 20260507044707 | 41 | 83 | 4.3 | 6.1 | 0.00 | 0.02 | 0.01 | 57 | 1026.2 |
| 20260507044207 | 41 | 98 | 4.3 | 6.1 | 0.00 | 0.03 | 0.01 | 57 | 1026.0 |
| 20260507043708 | 41 | 91 | 3.5 | 7.0 | 0.00 | 0.03 | 0.01 | 56 | 1026.0 |
| 20260507043208 | 41 | 83 | 3.5 | 7.0 | 0.00 | 0.03 | 0.01 | 56 | 1025.9 |
| 20260507042707 | 41 | 93 | 3.5 | 6.1 | 0.00 | 0.03 | 0.01 | 56 | 1025.9 |
| 20260507042647 | 42 | 91 | 3.5 | 6.1 | 0.00 | 0.03 | 0.01 | 55 | 1025.9 |
| 20260507041707 | 42 | 87 | 2.6 | 5.2 | 0.00 | 0.03 | 0.01 | 54 | 1025.8 |
| 20260507041428 | 42 | 76 | 2.6 | 4.3 | 0.00 | 0.04 | 0.01 | 54 | 1025.7 |
| 20260507040707 | 42 | 63 | 2.6 | 3.5 | 0.00 | 0.04 | 0.01 | 53 | 1025.7 |
| 20260507040206 | 42 | 34 | 2.6 | 4.3 | 0.00 | 0.04 | 0.01 | 53 | 1025.5 |
| 20260507035708 | 43 | 15 | 3.5 | 6.1 | 0.00 | 0.04 | 0.01 | 53 | 1025.5 |
| 20260507035207 | 43 | 27 | 3.5 | 6.1 | 0.00 | 0.04 | 0.01 | 53 | 1025.5 |
| 20260507034706 | 43 | 17 | 1.7 | 3.5 | 0.00 | 0.04 | 0.01 | 52 | 1025.4 |
| 20260507034207 | 43 | 349 | 1.7 | 4.3 | 0.00 | 0.04 | 0.01 | 53 | 1025.3 |
| 20260507033707 | 44 | 341 | 2.6 | 5.2 | 0.00 | 0.04 | 0.01 | 52 | 1025.4 |
| 20260507033159 | 44 | 9 | 0.9 | 4.3 | 0.00 | 0.04 | 0.01 | 52 | 1025.3 |
| 20260507032654 | 44 | 5 | 0.0 | 2.6 | 0.00 | 0.04 | 0.01 | 52 | 1025.3 |
| 20260507032147 | 45 | 277 | 0.0 | 1.7 | 0.00 | 0.04 | 0.01 | 50 | 1025.0 |
| 20260507031642 | 45 | 281 | 0.0 | 2.6 | 0.00 | 0.04 | 0.01 | 50 | 1024.9 |
| 20260507031137 | 45 | 254 | 0.9 | 2.6 | 0.00 | 0.04 | 0.01 | 50 | 1024.9 |
| 20260507030630 | 45 | 246 | 1.7 | 2.6 | 0.00 | 0.04 | 0.01 | 48 | 1024.7 |
| 20260507030124 | 46 | 250 | 1.7 | 4.3 | 0.00 | 0.05 | 0.01 | 48 | 1024.7 |
| 20260507025842 | 46 | 251 | 2.6 | 6.1 | 0.00 | 0.06 | 0.01 | 47 | 1024.5 |
| 20260507025111 | 46 | 236 | 2.6 | 6.1 | 0.00 | 0.07 | 0.01 | 47 | 1024.4 |
| 20260507024606 | 46 | 277 | 2.6 | 7.0 | 0.00 | 0.08 | 0.01 | 47 | 1024.4 |
| 20260507024100 | 46 | 244 | 4.3 | 8.7 | 0.00 | 0.08 | 0.01 | 47 | 1024.3 |
| 20260507023553 | 47 | 252 | 4.3 | 9.6 | 0.00 | 0.08 | 0.01 | 46 | 1024.2 |
| 20260507023047 | 47 | 254 | 4.3 | 9.6 | 0.00 | 0.09 | 0.01 | 45 | 1024.2 |
| 20260507022542 | 47 | 239 | 5.2 | 11.3 | 0.00 | 0.09 | 0.01 | 45 | 1023.9 |
| 20260507022035 | 47 | 250 | 6.1 | 13.0 | 0.00 | 0.09 | 0.01 | 45 | 1023.8 |
| 20260507021752 | 48 | 251 | 6.1 | 13.0 | 0.00 | 0.09 | 0.01 | 44 | 1023.7 |
| 20260507021023 | 48 | 266 | 7.0 | 12.2 | 0.00 | 0.09 | 0.01 | 43 | 1023.8 |
| 20260507020745 | 49 | 268 | 7.0 | 13.0 | 0.00 | 0.09 | 0.01 | 43 | 1023.5 |
| 20260507020233 | 49 | 267 | 7.0 | 13.9 | 0.00 | 0.09 | 0.01 | 42 | 1023.5 |
| 20260507015506 | 49 | 261 | 7.0 | 13.9 | 0.00 | 0.09 | 0.01 | 42 | 1023.4 |
| 20260507014959 | 50 | 257 | 7.0 | 13.9 | 0.00 | 0.09 | 0.01 | 42 | 1023.4 |
| 20260507014454 | 50 | 248 | 7.0 | 13.9 | 0.00 | 0.10 | 0.01 | 41 | 1023.2 |
| 20260507013947 | 51 | 263 | 7.8 | 14.8 | 0.00 | 0.11 | 0.01 | 41 | 1023.3 |
| 20260507013442 | 51 | 264 | 8.7 | 14.8 | 0.00 | 0.13 | 0.01 | 40 | 1023.2 |
| 20260507012935 | 51 | 242 | 7.8 | 15.6 | 0.00 | 0.16 | 0.01 | 40 | 1023.2 |
| 20260507012430 | 51 | 236 | 7.0 | 15.6 | 0.00 | 0.17 | 0.01 | 40 | 1023.2 |
| 20260507011924 | 50 | 5 | 7.8 | 18.2 | 0.00 | 0.17 | 0.01 | 39 | 1023.2 |
| 20260507011418 | 50 | 260 | 10.4 | 20.9 | 0.00 | 0.17 | 0.01 | 39 | 1023.2 |
| 20260507010912 | 50 | 297 | 11.3 | 20.9 | 0.00 | 0.17 | 0.01 | 39 | 1023.0 |
| 20260507010405 | 50 | 20 | 9.6 | 17.4 | 0.00 | 0.17 | 0.01 | 38 | 1022.9 |
| 20260507005900 | 51 | 318 | 7.8 | 14.8 | 0.00 | 0.17 | 0.01 | 40 | 1022.9 |
| 20260507005354 | 51 | 261 | 7.8 | 15.6 | 0.00 | 0.17 | 0.01 | 40 | 1022.5 |
| 20260507005112 | 51 | 176 | 7.8 | 17.4 | 0.00 | 0.17 | 0.01 | 40 | 1022.6 |
| 20260507004342 | 51 | 15 | 8.7 | 17.4 | 0.00 | 0.17 | 0.01 | 40 | 1022.4 |
| 20260507003835 | 51 | 297 | 7.0 | 17.4 | 0.00 | 0.17 | 0.01 | 40 | 1022.3 |
| 20260507003330 | 51 | 234 | 4.3 | 12.2 | 0.00 | 0.17 | 0.01 | 46 | 1022.1 |
| 20260507002823 | 51 | 300 | 3.5 | 12.2 | 0.00 | 0.17 | 0.01 | 49 | 1022.0 |
| 20260507002546 | 51 | 332 | 3.5 | 10.4 | 0.00 | 0.17 | 0.01 | 50 | 1022.0 |
| 20260507001812 | 51 | 0 | 5.2 | 14.8 | 0.00 | 0.17 | 0.01 | 51 | 1022.0 |
| 20260507001305 | 51 | 196 | 8.7 | 20.9 | 0.00 | 0.17 | 0.01 | 49 | 1022.0 |
| 20260507000800 | 52 | 275 | 8.7 | 20.9 | 0.00 | 0.17 | 0.01 | 43 | 1022.0 |
| 20260507000253 | 52 | 269 | 7.0 | 13.0 | 0.00 | 0.17 | 0.01 | 41 | 1021.6 |
| 20260506235748 | 52 | 273 | 7.8 | 16.5 | 0.00 | 0.17 | 0.01 | 41 | 1021.5 |
| 20260506235509 | 52 | 254 | 8.7 | 17.4 | 0.00 | 0.17 | 0.01 | 41 | 1021.5 |
| 20260506234736 | 52 | 258 | 7.8 | 17.4 | 0.00 | 0.17 | 0.01 | 41 | 1021.6 |
| 20260506234229 | 52 | 222 | 5.2 | 14.8 | 0.00 | 0.17 | 0.01 | 43 | 1021.6 |
| 20260506233723 | 51 | 211 | 3.5 | 9.6 | 0.00 | 0.17 | 0.01 | 47 | 1021.8 |
| 20260506233218 | 51 | 272 | 4.3 | 9.6 | 0.00 | 0.17 | 0.01 | 47 | 1021.8 |
| 20260506232711 | 51 | 268 | 5.2 | 9.6 | 0.00 | 0.17 | 0.01 | 47 | 1021.6 |
| 20260506232426 | 51 | 252 | 5.2 | 11.3 | 0.00 | 0.17 | 0.01 | 47 | 1021.5 |
| 20260506231700 | 51 | 291 | 5.2 | 11.3 | 0.00 | 0.17 | 0.01 | 47 | 1021.4 |
| 20260506231154 | 51 | 248 | 4.3 | 8.7 | 0.00 | 0.17 | 0.01 | 47 | 1021.5 |
| 20260506230648 | 51 | 5 | 4.3 | 10.4 | 0.00 | 0.17 | 0.01 | 47 | 1021.5 |
| 20260506230141 | 51 | 272 | 4.3 | 10.4 | 0.00 | 0.17 | 0.01 | 49 | 1021.6 |
| 20260506225636 | 50 | 300 | 6.1 | 12.2 | 0.00 | 0.17 | 0.01 | 53 | 1021.6 |
| 20260506225129 | 50 | 302 | 6.1 | 12.2 | 0.00 | 0.17 | 0.01 | 53 | 1021.5 |
| 20260506225112 | 50 | 281 | 7.0 | 13.0 | 0.00 | 0.17 | 0.01 | 54 | 1021.5 |
| 20260506224118 | 50 | 291 | 7.8 | 16.5 | 0.00 | 0.17 | 0.01 | 52 | 1021.5 |
| 20260506223611 | 50 | 310 | 8.7 | 17.4 | 0.00 | 0.17 | 0.01 | 52 | 1021.5 |
| 20260506223105 | 51 | 279 | 10.4 | 22.6 | 0.00 | 0.17 | 0.01 | 52 | 1021.6 |
| 20260506222559 | 52 | 273 | 11.3 | 22.6 | 0.00 | 0.17 | 0.01 | 49 | 1021.5 |
| 20260506222054 | 53 | 26 | 13.0 | 22.6 | 0.00 | 0.17 | 0.01 | 49 | 1021.3 |
| 20260506221548 | 54 | 329 | 12.2 | 22.6 | 0.00 | 0.17 | 0.01 | 47 | 1020.9 |
| 20260506221042 | 54 | 30 | 8.7 | 20.9 | 0.00 | 0.17 | 0.01 | 40 | 1020.6 |
| 20260506220536 | 54 | 260 | 8.7 | 20.9 | 0.00 | 0.17 | 0.01 | 41 | 1020.6 |
| 20260506220030 | 54 | 289 | 10.4 | 20.9 | 0.00 | 0.17 | 0.01 | 40 | 1020.5 |
| 20260506215747 | 54 | 277 | 9.6 | 20.9 | 0.00 | 0.17 | 0.01 | 38 | 1020.4 |
| 20260506215017 | 55 | 286 | 7.8 | 16.5 | 0.00 | 0.17 | 0.01 | 38 | 1020.4 |
| 20260506214518 | 55 | 270 | 8.7 | 18.2 | 0.00 | 0.17 | 0.01 | 39 | 1020.5 |
| 20260506214018 | 56 | 312 | 8.7 | 18.2 | 0.00 | 0.17 | 0.01 | 39 | 1020.6 |
| 20260506213519 | 55 | 236 | 8.7 | 16.5 | 0.00 | 0.17 | 0.01 | 41 | 1020.5 |
| 20260506213239 | 54 | 290 | 9.6 | 20.0 | 0.00 | 0.17 | 0.01 | 45 | 1020.5 |
| 20260506212518 | 53 | 241 | 11.3 | 20.0 | 0.00 | 0.17 | 0.01 | 45 | 1020.6 |
| 20260506212018 | 53 | 242 | 12.2 | 21.7 | 0.00 | 0.17 | 0.01 | 43 | 1020.5 |
| 20260506211518 | 54 | 253 | 12.2 | 21.7 | 0.00 | 0.17 | 0.01 | 43 | 1020.5 |
| 20260506211020 | 54 | 225 | 9.6 | 20.9 | 0.00 | 0.17 | 0.01 | 42 | 1020.4 |
| 20260506210518 | 54 | 283 | 7.8 | 13.9 | 0.00 | 0.17 | 0.01 | 44 | 1020.1 |
| 20260506210240 | 55 | 284 | 8.7 | 16.5 | 0.00 | 0.17 | 0.01 | 43 | 1020.3 |
| 20260506205518 | 55 | 218 | 7.8 | 16.5 | 0.00 | 0.17 | 0.01 | 42 | 1020.3 |
| 20260506205239 | 55 | 238 | 7.0 | 16.5 | 0.00 | 0.17 | 0.01 | 43 | 1020.3 |
| 20260506204518 | 55 | 234 | 7.8 | 16.5 | 0.00 | 0.17 | 0.01 | 43 | 1020.4 |
| 20260506204239 | 55 | 256 | 7.8 | 17.4 | 0.00 | 0.17 | 0.01 | 44 | 1020.5 |
| 20260506203520 | 54 | 253 | 8.7 | 18.2 | 0.00 | 0.17 | 0.01 | 46 | 1020.5 |
| 20260506203019 | 54 | 217 | 11.3 | 22.6 | 0.00 | 0.17 | 0.01 | 45 | 1020.6 |
| 20260506202512 | 55 | 248 | 9.6 | 22.6 | 0.00 | 0.17 | 0.01 | 44 | 1020.6 |
| 20260506202008 | 55 | 263 | 7.0 | 16.5 | 0.00 | 0.17 | 0.01 | 46 | 1020.5 |
| 20260506201508 | 55 | 232 | 7.8 | 17.4 | 0.00 | 0.17 | 0.01 | 45 | 1020.5 |
| 20260506201239 | 54 | 252 | 9.6 | 18.2 | 0.00 | 0.17 | 0.01 | 47 | 1020.5 |
| 20260506200508 | 54 | 282 | 10.4 | 18.2 | 0.00 | 0.17 | 0.01 | 45 | 1020.6 |
| 20260506200008 | 54 | 268 | 9.6 | 18.2 | 0.00 | 0.17 | 0.01 | 46 | 1020.5 |
| 20260506195507 | 54 | 234 | 10.4 | 20.9 | 0.00 | 0.17 | 0.01 | 46 | 1020.5 |
| 20260506195230 | 55 | 262 | 8.7 | 20.9 | 0.00 | 0.17 | 0.01 | 46 | 1020.5 |
| 20260506194508 | 55 | 256 | 8.7 | 19.1 | 0.00 | 0.17 | 0.01 | 47 | 1020.5 |
| 20260506194008 | 55 | 243 | 10.4 | 19.1 | 0.00 | 0.17 | 0.01 | 46 | 1020.5 |
| 20260506193508 | 55 | 239 | 11.3 | 20.0 | 0.00 | 0.17 | 0.01 | 46 | 1020.5 |
| 20260506193008 | 55 | 268 | 10.4 | 20.0 | 0.00 | 0.17 | 0.01 | 48 | 1020.5 |
| 20260506192504 | 54 | 208 | 9.6 | 18.2 | 0.00 | 0.17 | 0.01 | 51 | 1020.4 |
| 20260506192004 | 53 | 252 | 10.4 | 21.7 | 0.00 | 0.17 | 0.01 | 50 | 1020.5 |
| 20260506191504 | 53 | 246 | 8.7 | 21.7 | 0.00 | 0.17 | 0.01 | 51 | 1020.6 |
| 20260506191004 | 53 | 260 | 7.0 | 19.1 | 0.00 | 0.17 | 0.01 | 51 | 1020.6 |
| 20260506190504 | 54 | 263 | 7.0 | 19.1 | 0.00 | 0.17 | 0.01 | 50 | 1020.8 |
| 20260506190004 | 54 | 279 | 7.8 | 17.4 | 0.00 | 0.17 | 0.01 | 51 | 1020.6 |
| 20260506185504 | 54 | 208 | 7.8 | 17.4 | 0.00 | 0.17 | 0.01 | 51 | 1020.8 |
| 20260506185004 | 53 | 264 | 7.8 | 17.4 | 0.00 | 0.17 | 0.01 | 53 | 1020.8 |
| 20260506184504 | 53 | 297 | 7.0 | 16.5 | 0.00 | 0.17 | 0.01 | 52 | 1020.8 |
| 20260506183959 | 54 | 234 | 6.1 | 16.5 | 0.00 | 0.17 | 0.01 | 51 | 1020.9 |
| 20260506183716 | 54 | 203 | 7.0 | 15.6 | 0.00 | 0.17 | 0.01 | 52 | 1020.9 |
| 20260506183000 | 53 | 215 | 7.8 | 18.2 | 0.00 | 0.17 | 0.01 | 53 | 1021.1 |
| 20260506182459 | 53 | 313 | 8.7 | 19.1 | 0.00 | 0.17 | 0.01 | 52 | 1021.1 |
| 20260506181959 | 53 | 218 | 7.8 | 19.1 | 0.00 | 0.17 | 0.01 | 55 | 1021.3 |
| 20260506181459 | 53 | 234 | 7.0 | 14.8 | 0.00 | 0.17 | 0.01 | 57 | 1021.1 |
| 20260506181000 | 52 | 254 | 6.1 | 13.0 | 0.00 | 0.17 | 0.01 | 58 | 1021.3 |
| 20260506180725 | 51 | 183 | 7.0 | 13.0 | 0.00 | 0.17 | 0.01 | 57 | 1021.3 |
| 20260506180001 | 51 | 225 | 7.0 | 18.2 | 0.00 | 0.17 | 0.01 | 60 | 1021.3 |
| 20260506175454 | 51 | 240 | 7.0 | 18.2 | 0.00 | 0.17 | 0.01 | 59 | 1021.3 |
| 20260506174948 | 51 | 235 | 7.8 | 16.5 | 0.00 | 0.17 | 0.01 | 61 | 1021.4 |
| 20260506174443 | 50 | 177 | 8.7 | 16.5 | 0.00 | 0.17 | 0.01 | 61 | 1021.4 |
| 20260506173933 | 49 | 194 | 7.8 | 14.8 | 0.00 | 0.17 | 0.01 | 67 | 1021.3 |
| 20260506173426 | 48 | 220 | 7.0 | 13.0 | 0.00 | 0.17 | 0.01 | 66 | 1021.5 |
| 20260506172921 | 48 | 251 | 7.0 | 13.9 | 0.00 | 0.17 | 0.01 | 68 | 1021.4 |
| 20260506172415 | 47 | 184 | 7.0 | 13.0 | 0.00 | 0.17 | 0.01 | 69 | 1021.4 |
| 20260506171909 | 47 | 161 | 6.1 | 12.2 | 0.00 | 0.17 | 0.01 | 70 | 1021.4 |
| 20260506171403 | 46 | 201 | 5.2 | 12.2 | 0.00 | 0.17 | 0.01 | 72 | 1021.4 |
| 20260506170857 | 46 | 198 | 4.3 | 9.6 | 0.00 | 0.17 | 0.01 | 72 | 1021.5 |
| 20260506170351 | 46 | 200 | 2.6 | 8.7 | 0.00 | 0.17 | 0.01 | 72 | 1021.4 |
| 20260506165844 | 46 | 159 | 1.7 | 7.0 | 0.00 | 0.17 | 0.01 | 73 | 1021.3 |
| 20260506165339 | 45 | 262 | 2.6 | 7.0 | 0.00 | 0.17 | 0.01 | 74 | 1021.1 |
| 20260506164833 | 45 | 309 | 3.5 | 8.7 | 0.00 | 0.17 | 0.01 | 75 | 1021.1 |
| 20260506164545 | 45 | 271 | 4.3 | 10.4 | 0.00 | 0.17 | 0.01 | 76 | 1021.1 |
| 20260506163821 | 44 | 265 | 3.5 | 10.4 | 0.00 | 0.17 | 0.01 | 79 | 1021.1 |
| 20260506163538 | 44 | 217 | 2.6 | 6.1 | 0.00 | 0.17 | 0.01 | 79 | 1021.1 |
| 20260506162809 | 43 | 205 | 3.5 | 8.7 | 0.00 | 0.17 | 0.01 | 81 | 1021.3 |
| 20260506162521 | 43 | 238 | 4.3 | 8.7 | 0.00 | 0.17 | 0.01 | 82 | 1021.4 |
| 20260506161757 | 42 | 296 | 3.5 | 7.8 | 0.00 | 0.17 | 0.01 | 83 | 1021.3 |
| 20260506161251 | 42 | 278 | 3.5 | 7.0 | 0.00 | 0.17 | 0.01 | 83 | 1021.3 |
| 20260506160745 | 41 | 175 | 2.6 | 7.0 | 0.00 | 0.17 | 0.01 | 86 | 1021.1 |
| 20260506160239 | 41 | 178 | 2.6 | 9.6 | 0.00 | 0.17 | 0.01 | 87 | 1021.4 |
| 20260506155732 | 40 | 286 | 3.5 | 9.6 | 0.00 | 0.17 | 0.01 | 86 | 1021.4 |
| 20260506155227 | 40 | 268 | 2.6 | 7.8 | 0.00 | 0.17 | 0.01 | 88 | 1021.4 |
| 20260506154721 | 40 | 229 | 2.6 | 7.8 | 0.00 | 0.17 | 0.01 | 88 | 1021.4 |
| 20260506154215 | 40 | 243 | 2.6 | 7.8 | 0.00 | 0.17 | 0.01 | 87 | 1021.4 |
| 20260506153929 | 39 | 232 | 2.6 | 8.7 | 0.00 | 0.17 | 0.01 | 87 | 1021.5 |
| 20260506153203 | 39 | 233 | 4.3 | 9.6 | 0.00 | 0.17 | 0.01 | 88 | 1021.4 |
| 20260506152657 | 39 | 266 | 4.3 | 9.6 | 0.00 | 0.17 | 0.01 | 88 | 1021.4 |
| 20260506152151 | 39 | 211 | 2.6 | 7.8 | 0.00 | 0.17 | 0.01 | 88 | 1021.4 |
| 20260506151645 | 39 | 269 | 3.5 | 10.4 | 0.00 | 0.17 | 0.01 | 89 | 1021.4 |
| 20260506151139 | 39 | 237 | 5.2 | 10.4 | 0.00 | 0.17 | 0.01 | 90 | 1021.3 |
| 20260506150633 | 39 | 223 | 6.1 | 12.2 | 0.00 | 0.17 | 0.01 | 91 | 1021.4 |
| 20260506150126 | 39 | 250 | 6.1 | 12.2 | 0.00 | 0.17 | 0.01 | 92 | 1021.4 |
| 20260506145621 | 38 | 277 | 5.2 | 11.3 | 0.00 | 0.17 | 0.01 | 93 | 1021.4 |
| 20260506145115 | 38 | 205 | 3.5 | 9.6 | 0.00 | 0.17 | 0.01 | 94 | 1021.4 |
| 20260506144610 | 37 | 234 | 1.7 | 5.2 | 0.00 | 0.17 | 0.01 | 94 | 1021.4 |
| 20260506144103 | 37 | 215 | 2.6 | 5.2 | 0.00 | 0.17 | 0.01 | 94 | 1021.3 |
| 20260506143557 | 37 | 184 | 2.6 | 6.1 | 0.00 | 0.17 | 0.01 | 94 | 1021.1 |
| 20260506143050 | 37 | 183 | 1.7 | 6.1 | 0.00 | 0.17 | 0.01 | 94 | 1021.1 |
| 20260506142809 | 36 | 219 | 1.7 | 5.2 | 0.00 | 0.17 | 0.01 | 94 | 1021.1 |
| 20260506142039 | 36 | 198 | 2.6 | 5.2 | 0.00 | 0.17 | 0.01 | 94 | 1021.1 |
| 20260506141532 | 36 | 208 | 1.7 | 5.2 | 0.00 | 0.17 | 0.01 | 94 | 1021.1 |
| 20260506141247 | 35 | 240 | 0.9 | 4.3 | 0.00 | 0.17 | 0.01 | 94 | 1021.4 |
| 20260506140520 | 35 | 207 | 1.7 | 3.5 | 0.00 | 0.17 | 0.01 | 94 | 1021.3 |
| 20260506140015 | 35 | 207 | 1.7 | 3.5 | 0.00 | 0.17 | 0.01 | 94 | 1021.1 |
| 20260506135508 | 35 | 192 | 2.6 | 6.1 | 0.00 | 0.17 | 0.01 | 94 | 1021.3 |
| 20260506135003 | 35 | 188 | 1.7 | 6.1 | 0.00 | 0.17 | 0.01 | 94 | 1021.1 |
| 20260506134457 | 35 | 200 | 1.7 | 7.0 | 0.00 | 0.17 | 0.01 | 94 | 1021.3 |
| 20260506133951 | 34 | 241 | 2.6 | 8.7 | 0.00 | 0.17 | 0.01 | 94 | 1021.1 |
| 20260506133446 | 34 | 250 | 3.5 | 8.7 | 0.00 | 0.17 | 0.01 | 94 | 1021.0 |
| 20260506132940 | 34 | 211 | 2.6 | 7.8 | 0.00 | 0.17 | 0.01 | 94 | 1020.9 |
| 20260506132435 | 34 | 247 | 1.7 | 6.1 | 0.00 | 0.17 | 0.01 | 94 | 1020.9 |
| 20260506131928 | 33 | 232 | 1.7 | 3.5 | 0.00 | 0.17 | 0.01 | 93 | 1020.9 |
| 20260506131422 | 33 | 217 | 1.7 | 3.5 | 0.00 | 0.17 | 0.01 | 93 | 1020.9 |
| 20260506131133 | 33 | 223 | 1.7 | 5.2 | 0.00 | 0.17 | 0.01 | 93 | 1020.9 |
| 20260506130408 | 33 | 211 | 1.7 | 5.2 | 0.00 | 0.17 | 0.01 | 93 | 1020.8 |
| 20260506125903 | 33 | 246 | 1.7 | 3.5 | 0.00 | 0.17 | 0.01 | 93 | 1020.8 |
| 20260506125357 | 33 | 234 | 0.9 | 4.3 | 0.00 | 0.17 | 0.01 | 93 | 1020.8 |
| 20260506124850 | 33 | 210 | 0.9 | 5.2 | 0.00 | 0.17 | 0.01 | 93 | 1020.6 |
| 20260506124346 | 33 | 229 | 0.9 | 5.2 | 0.00 | 0.17 | 0.01 | 93 | 1020.8 |
| 20260506123841 | 33 | 189 | 0.9 | 3.5 | 0.00 | 0.17 | 0.01 | 93 | 1020.8 |
| 20260506123333 | 33 | 233 | 0.9 | 4.3 | 0.00 | 0.17 | 0.01 | 93 | 1020.5 |
| 20260506122828 | 33 | 208 | 0.9 | 4.3 | 0.00 | 0.17 | 0.01 | 93 | 1020.5 |
| 20260506122543 | 33 | 313 | 0.9 | 3.5 | 0.00 | 0.17 | 0.01 | 92 | 1020.5 |
| 20260506121817 | 33 | 86 | 0.9 | 6.1 | 0.00 | 0.17 | 0.01 | 93 | 1020.5 |
| 20260506121309 | 33 | 250 | 1.7 | 6.1 | 0.00 | 0.17 | 0.01 | 93 | 1020.5 |
| 20260506120802 | 33 | 192 | 0.9 | 5.2 | 0.00 | 0.17 | 0.01 | 93 | 1020.4 |
| 20260506120257 | 33 | 137 | 1.7 | 7.8 | 0.00 | 0.17 | 0.01 | 93 | 1020.4 |
| 20260506115750 | 33 | 145 | 1.7 | 7.8 | 0.00 | 0.17 | 0.01 | 93 | 1020.3 |
| 20260506115507 | 33 | 211 | 1.7 | 7.8 | 0.00 | 0.17 | 0.01 | 93 | 1020.4 |
| 20260506114739 | 33 | 243 | 2.6 | 7.8 | 0.00 | 0.17 | 0.01 | 93 | 1020.4 |
| 20260506114233 | 33 | 253 | 1.7 | 4.3 | 0.00 | 0.17 | 0.01 | 93 | 1020.3 |
| 20260506113952 | 33 | 227 | 1.7 | 5.2 | 0.00 | 0.17 | 0.01 | 93 | 1020.1 |
| 20260506113242 | 33 | 61 | 0.9 | 6.1 | 0.00 | 0.17 | 0.01 | 92 | 1020.1 |
| 20260506113220 | 33 | 248 | 1.7 | 5.2 | 0.00 | 0.17 | 0.01 | 92 | 1020.1 |
| 20260506112910 | 33 | 86 | 0.9 | 6.1 | 0.00 | 0.17 | 0.01 | 92 | 1020.0 |
| 20260506112146 | 33 | 194 | 1.7 | 6.1 | 0.00 | 0.17 | 0.01 | 92 | 1019.8 |
| 20260506111156 | 33 | 146 | 1.7 | 6.1 | 0.00 | 0.17 | 0.01 | 92 | 1019.6 |
| 20260506110911 | 33 | 150 | 0.9 | 3.5 | 0.00 | 0.17 | 0.01 | 92 | 1019.8 |
| 20260506110410 | 34 | 237 | 0.9 | 3.5 | 0.00 | 0.17 | 0.01 | 92 | 1019.9 |
| 20260506105900 | 34 | 355 | 0.0 | 2.6 | 0.00 | 0.17 | 0.01 | 92 | 1019.9 |
| 20260506105133 | 34 | 227 | 0.0 | 1.7 | 0.00 | 0.17 | 0.01 | 92 | 1019.9 |
| 20260506104856 | 34 | 227 | 0.0 | 2.6 | 0.00 | 0.17 | 0.01 | 92 | 1019.8 |
| 20260506104133 | 34 | 219 | 0.9 | 6.1 | 0.00 | 0.17 | 0.01 | 92 | 1019.8 |
| 20260506103633 | 34 | 209 | 0.9 | 6.1 | 0.00 | 0.17 | 0.01 | 92 | 1019.6 |
| 20260506103132 | 34 | 201 | 0.9 | 6.1 | 0.00 | 0.17 | 0.01 | 92 | 1019.8 |
| 20260506102633 | 34 | 251 | 0.9 | 6.1 | 0.00 | 0.17 | 0.01 | 92 | 1019.8 |
| 20260506102133 | 35 | 266 | 0.0 | 2.6 | 0.00 | 0.17 | 0.01 | 92 | 1019.8 |
| 20260506101633 | 35 | 221 | 0.9 | 2.6 | 0.00 | 0.17 | 0.01 | 92 | 1019.8 |
| 20260506101612 | 35 | 238 | 0.9 | 2.6 | 0.00 | 0.17 | 0.01 | 93 | 1019.9 |
| 20260506100633 | 35 | 238 | 1.7 | 2.6 | 0.00 | 0.17 | 0.01 | 93 | 1019.9 |
| 20260506100133 | 35 | 222 | 1.7 | 4.3 | 0.01 | 0.17 | 0.01 | 93 | 1019.9 |
| 20260506095633 | 35 | 243 | 1.7 | 4.3 | 0.01 | 0.17 | 0.01 | 93 | 1020.0 |
| 20260506095128 | 35 | 265 | 1.7 | 4.3 | 0.01 | 0.17 | 0.01 | 93 | 1019.9 |
| 20260506094630 | 35 | 240 | 1.7 | 4.3 | 0.01 | 0.17 | 0.01 | 93 | 1019.9 |
| 20260506094355 | 35 | 224 | 2.6 | 4.3 | 0.01 | 0.17 | 0.01 | 93 | 1019.9 |
| 20260506093628 | 35 | 248 | 1.7 | 4.3 | 0.01 | 0.17 | 0.01 | 93 | 1019.9 |
| 20260506093129 | 35 | 238 | 1.7 | 7.8 | 0.01 | 0.17 | 0.01 | 93 | 1019.9 |
| 20260506092629 | 35 | 247 | 0.9 | 7.8 | 0.01 | 0.17 | 0.01 | 93 | 1019.9 |
| 20260506092129 | 35 | 247 | 1.7 | 8.7 | 0.01 | 0.17 | 0.01 | 93 | 1019.9 |
| 20260506091629 | 35 | 253 | 1.7 | 8.7 | 0.01 | 0.17 | 0.01 | 93 | 1019.9 |
| 20260506091131 | 35 | 244 | 1.7 | 5.2 | 0.01 | 0.17 | 0.01 | 93 | 1019.9 |
| 20260506090848 | 35 | 258 | 0.9 | 3.5 | 0.01 | 0.17 | 0.01 | 93 | 1019.9 |